EW8324 Weather Reports


Display with metric or nautical units.
time (UTC)temp
F
wind
direction
speed
MPH
gust
MPH
rain 1hr
in
rain 24hr
in
rain mn
in
humidity
%
barometer
mb
20220528195311 95 281 0.0 1.0 0.00 0.00 0.00 49 1007.5
20220528194812 95 306 0.0 0.0 0.00 0.00 0.00 49 1007.5
20220528194310 94 312 0.0 0.0 0.00 0.00 0.00 49 1007.6
20220528193808 94 195 0.0 1.0 0.00 0.00 0.00 49 1007.7
20220528193311 94 219 0.0 1.0 0.00 0.00 0.00 48 1007.8
20220528192812 94 238 0.0 0.0 0.00 0.00 0.00 49 1007.9
20220528192310 94 237 0.0 1.0 0.00 0.00 0.00 48 1007.9
20220528191808 94 241 0.0 1.0 0.00 0.00 0.00 51 1008.0
20220528191311 94 209 0.0 0.0 0.00 0.00 0.00 51 1008.1
20220528190810 94 264 0.0 0.0 0.00 0.00 0.00 53 1008.1
20220528190310 94 264 0.0 0.0 0.00 0.00 0.00 52 1008.2
20220528185807 93 264 0.0 0.0 0.00 0.00 0.00 51 1008.2
20220528185310 93 289 0.0 3.0 0.00 0.00 0.00 55 1008.3
20220528184808 92 161 0.0 3.0 0.00 0.00 0.00 55 1008.4
20220528184310 92 178 1.0 3.0 0.00 0.00 0.00 53 1008.4
20220528183812 93 179 0.0 4.0 0.00 0.00 0.00 55 1008.5
20220528183309 93 165 1.0 4.0 0.00 0.00 0.00 53 1008.5
20220528182808 94 159 0.0 3.0 0.00 0.00 0.00 55 1008.6
20220528182308 94 272 0.0 0.0 0.00 0.00 0.00 55 1008.7
20220528181807 93 272 0.0 0.0 0.00 0.00 0.00 53 1008.9
20220528181308 93 272 0.0 0.0 0.00 0.00 0.00 53 1008.8
20220528180806 93 272 0.0 0.0 0.00 0.00 0.00 53 1008.9
20220528180306 93 272 0.0 0.0 0.00 0.00 0.00 54 1008.9
20220528175807 93 276 0.0 0.0 0.00 0.00 0.00 55 1009.0
20220528175311 93 186 0.0 0.0 0.00 0.00 0.00 57 1009.1
20220528174809 92 186 0.0 4.0 0.00 0.00 0.00 54 1009.1
20220528174308 92 186 0.0 4.0 0.00 0.00 0.00 57 1009.2
20220528173805 93 164 0.0 0.0 0.00 0.00 0.00 56 1009.2
20220528173307 92 158 0.0 0.0 0.00 0.00 0.00 58 1009.3
20220528172802 92 157 0.0 2.0 0.00 0.00 0.00 59 1009.3
20220528172303 92 157 0.0 2.0 0.00 0.00 0.00 56 1009.3
20220528171808 92 121 0.0 0.0 0.00 0.00 0.00 56 1009.4
20220528171308 92 147 0.0 0.0 0.00 0.00 0.00 56 1009.5
20220528170806 92 326 0.0 0.0 0.00 0.00 0.00 56 1009.5
20220528170306 92 295 0.0 0.0 0.00 0.00 0.00 60 1009.6
20220528165804 91 298 0.0 0.0 0.00 0.00 0.00 60 1009.6
20220528165307 91 306 0.0 0.0 0.00 0.00 0.00 57 1009.7
20220528164807 90 162 0.0 0.0 0.00 0.00 0.00 58 1009.7
20220528164307 91 175 0.0 0.0 0.00 0.00 0.00 58 1009.8
20220528163812 91 220 0.0 0.0 0.00 0.00 0.00 58 1009.9
20220528163803 91 220 0.0 0.0 0.00 0.00 0.00 58 1009.8
20220528163306 91 223 0.0 0.0 0.00 0.00 0.00 57 1009.8
20220528162804 91 230 0.0 1.0 0.00 0.00 0.00 57 1009.9
20220528162306 90 230 0.0 1.0 0.00 0.00 0.00 61 1009.8
20220528161806 90 230 0.0 1.0 0.00 0.00 0.00 58 1009.9
20220528161306 89 230 0.0 4.0 0.00 0.00 0.00 60 1009.9
20220528160803 89 230 0.0 4.0 0.00 0.00 0.00 59 1009.8
20220528160306 89 188 0.0 0.0 0.00 0.00 0.00 59 1009.9
20220528155803 89 193 0.0 1.0 0.00 0.00 0.00 58 1010.0
20220528155304 89 189 0.0 1.0 0.00 0.00 0.00 60 1009.9
20220528154804 88 189 0.0 0.0 0.00 0.00 0.00 62 1010.0
20220528154307 88 189 0.0 1.0 0.00 0.00 0.00 64 1010.0
20220528153803 87 189 0.0 1.0 0.00 0.00 0.00 62 1010.1
20220528153305 87 124 0.0 1.0 0.00 0.00 0.00 62 1010.2
20220528152803 87 158 0.0 1.0 0.00 0.00 0.00 61 1010.2
20220528152305 87 175 0.0 0.0 0.00 0.00 0.00 61 1010.2
20220528151802 87 206 0.0 0.0 0.00 0.00 0.00 62 1010.3
20220528151302 87 206 0.0 0.0 0.00 0.00 0.00 60 1010.3
20220528150759 86 238 0.0 0.0 0.00 0.00 0.00 60 1010.4
20220528150303 86 168 0.0 0.0 0.00 0.00 0.00 61 1010.4
20220528145803 85 168 0.0 0.0 0.00 0.00 0.00 60 1010.5
20220528145306 85 151 0.0 0.0 0.00 0.00 0.00 61 1010.5
20220528144801 85 158 0.0 0.0 0.00 0.00 0.00 60 1010.5
20220528144308 84 155 0.0 2.0 0.00 0.00 0.00 58 1010.6
20220528143803 85 151 0.0 2.0 0.00 0.00 0.00 58 1010.5
20220528143306 84 169 0.0 0.0 0.00 0.00 0.00 58 1010.6
20220528142801 84 165 0.0 0.0 0.00 0.00 0.00 58 1010.5
20220528142259 83 165 0.0 0.0 0.00 0.00 0.00 58 1010.5
20220528141801 82 165 0.0 0.0 0.00 0.00 0.00 58 1010.4
20220528141302 82 165 0.0 0.0 0.00 0.00 0.00 60 1010.3
20220528140800 80 165 0.0 0.0 0.00 0.00 0.00 61 1010.3
20220528140304 79 165 0.0 0.0 0.00 0.00 0.00 61 1010.3
20220528135800 78 131 0.0 0.0 0.00 0.00 0.00 65 1010.3
20220528135301 77 131 0.0 1.0 0.00 0.00 0.00 66 1010.2
20220528134802 76 274 0.0 1.0 0.00 0.00 0.00 69 1010.2
20220528134302 75 0 0.0 0.0 0.00 0.01 0.00 71 1010.1
20220528133759 73 164 0.0 0.0 0.00 0.01 0.00 74 1010.2
20220528133304 72 116 0.0 0.0 0.00 0.01 0.00 76 1010.3
20220528132803 71 116 0.0 0.0 0.00 0.01 0.00 77 1010.2
20220528132302 71 116 0.0 0.0 0.00 0.01 0.00 77 1010.2
20220528131759 70 116 0.0 0.0 0.00 0.01 0.00 78 1010.2
20220528131302 70 116 0.0 0.0 0.00 0.01 0.00 78 1010.2
20220528130801 69 116 0.0 0.0 0.00 0.01 0.00 80 1010.2
20220528130300 68 138 0.0 0.0 0.00 0.01 0.00 81 1010.2
20220528125756 67 343 0.0 0.0 0.00 0.01 0.00 82 1010.2
20220528125302 67 343 0.0 0.0 0.00 0.01 0.00 84 1010.2
20220528124759 66 343 0.0 0.0 0.00 0.01 0.00 84 1010.1
20220528124300 66 343 0.0 0.0 0.00 0.01 0.00 84 1010.2
20220528123759 66 343 0.0 0.0 0.00 0.01 0.00 84 1010.1
20220528123300 66 343 0.0 0.0 0.00 0.01 0.00 84 1010.0
20220528122800 66 343 0.0 0.0 0.00 0.01 0.00 84 1010.1
20220528122300 66 343 0.0 0.0 0.00 0.01 0.00 85 1010.0
20220528121759 66 343 0.0 0.0 0.00 0.01 0.00 85 1010.0
20220528121259 66 343 0.0 0.0 0.00 0.01 0.00 85 1010.0
20220528120800 66 343 0.0 0.0 0.00 0.01 0.00 85 1010.0
20220528120300 66 343 0.0 0.0 0.00 0.01 0.00 85 1009.9
20220528115757 65 343 0.0 0.0 0.00 0.01 0.00 84 1009.9
20220528115259 65 343 0.0 0.0 0.00 0.01 0.00 84 1009.9
20220528114800 65 343 0.0 0.0 0.00 0.01 0.00 84 1009.9
20220528114259 66 343 0.0 0.0 0.00 0.01 0.00 84 1009.9
20220528113757 66 343 0.0 0.0 0.00 0.01 0.00 84 1009.8
20220528113259 66 343 0.0 0.0 0.00 0.01 0.00 84 1009.7
20220528112757 66 343 0.0 0.0 0.00 0.01 0.00 84 1009.8
20220528112258 66 343 0.0 0.0 0.00 0.01 0.00 83 1009.8
20220528111756 66 343 0.0 0.0 0.00 0.01 0.00 83 1009.8
20220528111302 66 343 0.0 0.0 0.00 0.01 0.00 83 1009.7
20220528110758 66 343 0.0 0.0 0.00 0.01 0.00 83 1009.7
20220528110259 66 343 0.0 0.0 0.00 0.01 0.00 83 1009.6
20220528105758 66 343 0.0 0.0 0.00 0.01 0.00 82 1009.6
20220528105259 66 343 0.0 0.0 0.00 0.01 0.00 82 1009.6
20220528104756 66 343 0.0 0.0 0.00 0.01 0.00 82 1009.5
20220528104256 66 343 0.0 0.0 0.00 0.01 0.00 82 1009.5
20220528103756 67 343 0.0 0.0 0.00 0.01 0.00 81 1009.5
20220528103257 67 343 0.0 0.0 0.00 0.01 0.00 81 1009.5
20220528102757 67 343 0.0 0.0 0.00 0.01 0.00 80 1009.5
20220528102257 67 343 0.0 0.0 0.00 0.01 0.00 80 1009.5
20220528101756 67 343 0.0 0.0 0.00 0.01 0.00 80 1009.5
20220528101258 67 343 0.0 0.0 0.00 0.01 0.00 80 1009.3
20220528100755 67 343 0.0 0.0 0.00 0.01 0.00 79 1009.3
20220528100258 67 343 0.0 0.0 0.00 0.01 0.00 79 1009.2
20220528095755 67 343 0.0 0.0 0.00 0.01 0.00 78 1009.2
20220528095258 68 343 0.0 0.0 0.00 0.01 0.00 78 1009.2
20220528094755 68 343 0.0 0.0 0.00 0.01 0.00 78 1009.2
20220528094257 68 343 0.0 0.0 0.00 0.01 0.00 77 1009.2
20220528093757 68 343 0.0 0.0 0.00 0.01 0.00 77 1009.2
20220528093300 68 343 0.0 0.0 0.00 0.01 0.00 77 1009.2
20220528092755 69 343 0.0 0.0 0.00 0.01 0.00 76 1009.2
20220528092256 69 343 0.0 0.0 0.00 0.01 0.00 76 1009.2
20220528091756 69 343 0.0 0.0 0.00 0.01 0.00 75 1009.1
20220528091255 69 343 0.0 0.0 0.00 0.01 0.00 76 1009.2
20220528090754 69 343 0.0 0.0 0.00 0.01 0.00 75 1009.2
20220528090257 69 343 0.0 0.0 0.00 0.01 0.00 76 1009.2
20220528085756 70 343 0.0 0.0 0.00 0.01 0.00 75 1009.0
20220528085254 70 343 0.0 0.0 0.00 0.01 0.00 74 1009.0
20220528084753 70 343 0.0 0.0 0.00 0.01 0.00 74 1009.1
20220528084255 70 343 0.0 0.0 0.00 0.01 0.00 73 1009.0
20220528083754 70 343 0.0 0.0 0.00 0.01 0.00 73 1009.0
20220528083255 70 343 0.0 0.0 0.00 0.01 0.00 73 1009.0
20220528082752 71 343 0.0 0.0 0.00 0.01 0.00 72 1009.0
20220528082254 71 343 0.0 0.0 0.00 0.01 0.00 71 1009.1
20220528081755 71 343 0.0 0.0 0.00 0.01 0.00 71 1009.1
20220528081254 71 343 0.0 0.0 0.00 0.01 0.00 71 1009.1
20220528080752 71 343 0.0 0.0 0.00 0.01 0.00 70 1009.1
20220528080255 71 343 0.0 0.0 0.00 0.01 0.00 70 1009.0
20220528075755 72 343 0.0 0.0 0.00 0.01 0.00 68 1009.0
20220528075257 72 343 0.0 0.0 0.00 0.01 0.00 68 1009.0
20220528074754 72 343 0.0 0.0 0.00 0.01 0.00 69 1009.0
20220528074254 72 343 0.0 0.0 0.00 0.01 0.00 68 1009.1
20220528073754 72 343 0.0 0.0 0.00 0.01 0.00 68 1009.2
20220528073255 72 343 0.0 0.0 0.00 0.01 0.00 67 1009.3
20220528072752 73 343 0.0 0.0 0.00 0.01 0.00 66 1009.3
20220528072253 73 343 0.0 0.0 0.00 0.01 0.00 66 1009.1
20220528071753 73 343 0.0 0.0 0.00 0.01 0.00 66 1009.1
20220528071254 73 343 0.0 0.0 0.00 0.01 0.00 66 1009.2
20220528070752 73 343 0.0 0.0 0.00 0.01 0.00 66 1009.2
20220528070254 73 343 0.0 0.0 0.00 0.01 0.00 67 1009.2
20220528065751 73 343 0.0 0.0 0.00 0.01 0.00 66 1009.3
20220528065252 73 343 0.0 0.0 0.00 0.01 0.00 65 1009.4
20220528064752 73 343 0.0 0.0 0.00 0.01 0.00 64 1009.3
20220528064254 73 343 0.0 0.0 0.00 0.01 0.00 64 1009.3
20220528063751 73 343 0.0 0.0 0.00 0.01 0.00 64 1009.3
20220528063253 73 343 0.0 0.0 0.00 0.01 0.00 64 1009.3
20220528062750 73 343 0.0 0.0 0.00 0.01 0.00 64 1009.3
20220528062254 73 343 0.0 0.0 0.00 0.01 0.00 64 1009.4
20220528061752 74 343 0.0 0.0 0.00 0.01 0.00 64 1009.4
20220528061251 74 343 0.0 0.0 0.00 0.01 0.00 65 1009.4
20220528060752 74 343 0.0 0.0 0.00 0.01 0.00 65 1009.4
20220528060251 74 343 0.0 0.0 0.00 0.01 0.00 65 1009.4
20220528055751 74 343 0.0 0.0 0.00 0.01 0.00 65 1009.5
20220528055251 74 343 0.0 0.0 0.00 0.01 0.00 65 1009.5
20220528054750 74 343 0.0 0.0 0.00 0.01 0.00 65 1009.5
20220528054250 74 343 0.0 0.0 0.00 0.01 0.00 65 1009.6
20220528053751 74 343 0.0 0.0 0.00 0.01 0.00 65 1009.6
20220528053251 75 343 0.0 0.0 0.00 0.01 0.00 65 1009.7
20220528052749 75 343 0.0 0.0 0.00 0.01 0.00 65 1009.8
20220528052251 75 343 0.0 0.0 0.00 0.01 0.00 65 1009.7
20220528051753 75 343 0.0 0.0 0.00 0.01 0.00 65 1009.8
20220528051251 75 343 0.0 0.0 0.00 0.01 0.00 65 1009.8
20220528050748 75 343 0.0 0.0 0.00 0.01 0.00 64 1009.8
20220528050252 76 343 0.0 0.0 0.00 0.01 0.00 64 1009.8
20220528045750 76 343 0.0 0.0 0.00 0.01 0.01 64 1009.9
20220528045249 76 343 0.0 0.0 0.00 0.01 0.01 64 1009.8
20220528044750 76 343 0.0 0.0 0.00 0.01 0.01 64 1009.9
20220528044253 76 343 0.0 0.0 0.00 0.01 0.01 64 1009.9
20220528043749 76 343 0.0 0.0 0.00 0.01 0.01 64 1009.9
20220528043249 77 343 0.0 0.0 0.00 0.01 0.01 63 1009.9
20220528042752 77 343 0.0 0.0 0.00 0.01 0.01 63 1009.9
20220528042249 77 343 0.0 0.0 0.00 0.01 0.01 62 1009.9
20220528041749 77 343 0.0 0.0 0.00 0.01 0.01 62 1010.0
20220528041253 78 343 0.0 0.0 0.00 0.01 0.01 61 1010.0
20220528040750 78 343 0.0 0.0 0.00 0.01 0.01 61 1010.0
20220528040248 78 343 0.0 0.0 0.00 0.01 0.01 60 1010.0
20220528035746 78 343 0.0 0.0 0.00 0.01 0.01 61 1010.0
20220528035251 78 343 0.0 0.0 0.00 0.01 0.01 60 1009.9
20220528034752 79 343 0.0 0.0 0.00 0.01 0.01 59 1010.0
20220528034250 79 343 0.0 0.0 0.00 0.01 0.01 59 1009.8
20220528033746 79 343 0.0 0.0 0.00 0.01 0.01 58 1009.8
20220528033254 79 343 0.0 0.0 0.00 0.01 0.01 59 1009.7
20220528032751 79 343 0.0 0.0 0.00 0.01 0.01 59 1009.7
20220528032249 80 343 0.0 0.0 0.00 0.01 0.01 58 1009.7
20220528031747 80 343 0.0 0.0 0.00 0.01 0.01 57 1009.7
20220528031247 80 343 0.0 0.0 0.00 0.01 0.01 57 1009.7
20220528030747 80 343 0.0 0.0 0.00 0.01 0.01 56 1009.6
20220528030249 81 343 0.0 0.0 0.00 0.01 0.01 56 1009.6
20220528025746 81 343 0.0 0.0 0.00 0.01 0.01 56 1009.5
20220528025247 81 343 0.0 0.0 0.00 0.01 0.01 55 1009.5
20220528024746 82 343 0.0 0.0 0.00 0.01 0.01 55 1009.4
20220528024249 82 343 0.0 0.0 0.00 0.01 0.01 54 1009.4
20220528023745 82 343 0.0 0.0 0.00 0.01 0.01 54 1009.4
20220528023250 83 343 0.0 0.0 0.00 0.01 0.01 53 1009.3
20220528022745 83 343 0.0 0.0 0.00 0.01 0.01 52 1009.3
20220528022247 83 343 0.0 0.0 0.00 0.01 0.01 51 1009.2
20220528021746 84 343 0.0 0.0 0.00 0.01 0.01 50 1009.2
20220528021248 84 343 0.0 0.0 0.00 0.01 0.01 49 1009.2
20220528020746 85 343 0.0 0.0 0.00 0.01 0.01 48 1009.1
20220528020248 85 343 0.0 0.0 0.00 0.01 0.01 49 1009.1
20220528015745 85 343 0.0 0.0 0.00 0.01 0.01 48 1008.9
20220528015247 86 343 0.0 0.0 0.00 0.01 0.01 47 1009.0
20220528014745 86 343 0.0 0.0 0.00 0.01 0.01 45 1008.9
20220528014246 86 343 0.0 0.0 0.00 0.01 0.01 44 1008.9
20220528013744 87 343 0.0 0.0 0.00 0.01 0.01 45 1008.9
20220528013245 87 343 0.0 0.0 0.00 0.01 0.01 44 1008.9
20220528012743 87 343 0.0 0.0 0.00 0.01 0.01 43 1008.8
20220528012245 88 343 0.0 0.0 0.00 0.01 0.01 42 1008.8
20220528011745 88 343 0.0 0.0 0.00 0.01 0.01 42 1008.8
20220528011246 89 343 0.0 0.0 0.00 0.01 0.01 43 1008.8
20220528010743 89 343 0.0 0.0 0.00 0.01 0.01 40 1008.7
20220528010246 90 343 0.0 0.0 0.00 0.01 0.01 40 1008.7
20220528005743 90 343 0.0 0.0 0.00 0.01 0.01 40 1008.7
20220528005245 90 343 0.0 0.0 0.00 0.01 0.01 40 1008.8
20220528004744 90 343 0.0 0.0 0.00 0.01 0.01 41 1008.7
20220528004246 90 343 0.0 0.0 0.00 0.01 0.01 41 1008.7
20220528003743 91 343 0.0 0.0 0.00 0.01 0.01 40 1008.6
20220528003245 91 343 0.0 0.0 0.00 0.01 0.01 40 1008.6
20220528002747 91 343 0.0 0.0 0.00 0.01 0.01 40 1008.6
20220528002243 91 343 0.0 0.0 0.00 0.01 0.01 40 1008.5
20220528001743 92 343 0.0 0.0 0.00 0.01 0.01 41 1008.5
20220528001250 92 343 0.0 0.0 0.00 0.01 0.01 40 1008.6
20220528000742 92 343 0.0 0.0 0.00 0.01 0.01 40 1008.4
20220528000244 92 343 0.0 0.0 0.00 0.01 0.01 39 1008.4
20220527235743 92 343 0.0 0.0 0.00 0.01 0.01 40 1008.4
20220527235244 92 341 0.0 0.0 0.00 0.01 0.01 39 1008.4
20220527234743 93 0 0.0 0.0 0.00 0.01 0.01 39 1008.5
20220527234245 93 0 0.0 0.0 0.00 0.01 0.01 39 1008.5
20220527233741 93 0 0.0 0.0 0.00 0.01 0.01 39 1008.5
20220527233244 93 52 0.0 0.0 0.00 0.01 0.01 38 1008.4
20220527232742 93 58 0.0 0.0 0.00 0.01 0.01 37 1008.5
20220527232245 93 14 0.0 0.0 0.00 0.01 0.01 37 1008.6
20220527231742 94 14 0.0 0.0 0.00 0.01 0.01 36 1008.6
20220527231242 94 348 0.0 0.0 0.00 0.01 0.01 35 1008.5
20220527230743 94 348 0.0 0.0 0.00 0.01 0.01 35 1008.6
20220527230247 94 354 0.0 3.0 0.00 0.01 0.01 36 1008.7
20220527225740 94 355 0.0 3.0 0.00 0.01 0.01 37 1008.6
20220527225241 94 336 0.0 0.0 0.00 0.01 0.01 36 1008.7
20220527224741 94 0 0.0 0.0 0.00 0.01 0.01 35 1008.7
20220527224242 94 0 0.0 0.0 0.00 0.01 0.01 35 1008.8
20220527223743 94 44 0.0 0.0 0.00 0.01 0.01 35 1008.9
20220527223242 94 271 0.0 0.0 0.00 0.01 0.01 37 1008.9
20220527222741 94 93 0.0 0.0 0.00 0.01 0.01 38 1009.0
20220527222242 94 25 0.0 0.0 0.00 0.01 0.01 37 1009.0
20220527221739 94 290 0.0 0.0 0.00 0.01 0.01 38 1009.0
20220527221240 94 320 0.0 1.0 0.00 0.01 0.01 40 1009.1
20220527220739 94 298 0.0 1.0 0.00 0.01 0.01 39 1009.1
20220527220242 94 313 0.0 1.0 0.00 0.01 0.01 41 1009.1
20220527215742 94 34 0.0 0.0 0.00 0.01 0.01 43 1009.1
20220527215241 94 330 0.0 0.0 0.00 0.01 0.01 43 1009.2
20220527214738 94 300 0.0 0.0 0.00 0.01 0.01 43 1009.2
20220527214241 94 265 0.0 0.0 0.00 0.01 0.01 42 1009.2
20220527213739 94 351 0.0 0.0 0.00 0.01 0.01 41 1009.3
20220527213241 94 351 0.0 3.0 0.00 0.01 0.01 45 1009.4
20220527212739 94 351 0.0 3.0 0.00 0.01 0.01 44 1009.4
20220527212235 94 354 0.0 0.0 0.00 0.01 0.01 44 1009.6
20220527211739 94 20 0.0 0.0 0.00 0.01 0.01 47 1009.6
20220527211240 94 0 0.0 0.0 0.00 0.01 0.01 47 1009.6
20220527210739 94 3 0.0 2.0 0.00 0.01 0.01 46 1009.7
20220527210240 94 312 0.0 2.0 0.00 0.01 0.01 46 1009.8
20220527205738 94 310 0.0 2.0 0.00 0.01 0.01 45 1009.8
20220527205240 94 30 0.0 0.0 0.00 0.01 0.01 46 1009.9
20220527204737 94 326 0.0 0.0 0.00 0.01 0.01 48 1010.1
20220527204241 94 7 0.0 0.0 0.00 0.01 0.01 48 1010.1
20220527203734 94 8 0.0 0.0 0.00 0.01 0.01 46 1010.1
20220527203239 95 321 0.0 0.0 0.00 0.01 0.01 48 1010.2
20220527202737 95 321 0.0 4.0 0.00 0.01 0.01 47 1010.3
20220527202238 95 338 1.0 4.0 0.00 0.01 0.01 47 1010.3
20220527201737 95 327 0.0 5.0 0.00 0.01 0.01 47 1010.3
20220527201241 95 17 0.0 7.0 0.00 0.01 0.01 46 1010.5
20220527200738 95 250 0.0 7.0 0.00 0.01 0.01 47 1010.5
20220527200239 95 251 0.0 1.0 0.00 0.01 0.01 46 1010.6
20220527195736 95 245 0.0 0.0 0.00 0.01 0.01 47 1010.6